THORAD AGENA D DEB, 4689

Orbit data source: Space-Track

THORAD AGENA D DEB, 4689 is space debris in SSO originally from a launch on Wed, 08 Apr 1970 UTC launched from the Air Force Western Test Range (AFWTR). Debris objects in space refer to the collection of defunct objects orbiting the Earth. Examples of debris include non-operational satellites, rocket bodies, and fragments generated from explosions, collisions, or faulty payload assembly.

Loading next visibility...
Identifier
4689, 1970-025BN
Orbit
SSO
Country
Flag of USUS
Related business
Manufacturer
Unknown
Mission
Spacecraft
Bus & Motor
Unknown
Mass
Unknown
Launch date (UTC)
1970-04-08 (56 years ago)
Launch vehicle
Unknown
Launch site
Air Force Western Test Range (AFWTR)
Object type
Payload
Rocket body
Debris
Shape & HBR
Unknown shape, 0.1 m
Radar Cross Section
Medium (>0.1 m² and <1 m²)

Expand to show TLE details & history
Last TLE update: 17 hours ago

TLE from 17 hours ago
0 THORAD AGENA D DEB
1 04689U 70025BN  26255.48260787  .00000191  00000-0  32636-3 0  9997
2 04689  99.3590  85.2135 0069641 154.7466 235.1884 13.56178013782257
Epoch: 2026-09-12T11:34Z
TLE epoch observation values (Epoch: 2026-09-12T11:34:57.319Z)
Latitude
28.90188°
Longitude
-85.20997°
Altitude
1,082.88 km
Speed
7.299 km/s
True Right ascension
05h 20m 04s
True Declination
28° 45' 47"
Sunlit
Object was in daylight at epoch
Visualization orbit readout
Latitude
Unknown
Longitude
Unknown
Altitude
Unknown
Speed
Unknown
Apparent Right ascension
Unknown
Apparent Declination
Unknown
Sunlit
N/A
Visualization observer readout
Local Sidereal Time
21:21:18
Azimuth
Unknown
Elevation
Unknown
Doppler factor
Unknown
Orbital elements
Apogee altitude
1,098.599 km
Perigee altitude
995.182 km
Semi-major axis
7,425.027 km
Eccentricity
0.00696
Inclination
99.359°
RAAN
85.2135°
Arg. of periapsis
154.7466°
True anomaly
234.53645°
Mean anomaly
235.1884°
Eccentric anomaly
234.8621°
Mean motion
3.39231 °/min
Orbital period
106.12 mins
BSTAR
0.00032636
Loading maneuver chart data...
Computing Atmospheric mass density...
Loading historical data...
Loading historical data...
Loading historical data...
Loading historical data...
Loading historical data...
Loading historical data...
Loading historical data...

Documentation

Showing up to 5 results
|